Find Starlink 33545

NORAD ID: 62101 Int'l Des: 2024-220 Owner: SPXS Country: US Constellation: starlink operational
LEOCIRCULAR

当前视图

正在加载3D地球...

About Starlink 33545

Starlink 33545 (NORAD 62101) is a starlink constellation satellite (v2 mini) launched Nov 25, 2024 by SPXS of US. It operates in LEO, CIRCULAR orbit with a mass of 530.00 kg.

即将过境

Passes for default location (London). Set your location on the main map for personalized predictions.

高度历史

Loading altitude history...

两行轨道根数

1 62101U 24220P 26237.31821026 .00014612 00000-0 53936-3 0 9996
2 62101 42.9984 332.9646 0001754 159.8900 200.2021 15.27586908 98814
Epoch: Aug 25, 2026 • Age: 13 hours

当前状态

高度 485.7 km
远地点 / 近地点 N/A
速度 7.63 km/s
星下点 41.23°N, 117.28°E
发射日期 Nov 25, 2024
运行时间 1.7 years
类型 internet

技术详情

分类 Payload
质量 530.00 kg
干质量 500.00 kg
总质量 530.00 kg
长度 0.30 m
直径 4.10 m
跨度 29.00 m
形状 Box + pan
制造商 SPXS
平台类型 Starlink V2MO
阶段状态 In Orbit
所有者/国家 SPXS/US

Most Searched